Regional Weather Roundup
Issued by NWS

Home | Current Version | Previous Version | Graphics & Text | Print | Product List | Glossary On
Versions: 1 2 3 4 5 6 7 8 9 10 11 12 13 14 15 16 17 18 19 20 21 22 23 24 25 26 27 28 29 30 31 32 33 34 35 36 37 38 39 40 41 42 43 44 45 46 47 48 49 50
773
ASUS44 KJAN 221410
RWRMS

MISSISSIPPI HOURLY WEATHER ROUNDUP
NATIONAL WEATHER SERVICE JACKSON MS
800 AM CST MON DEC 22 2014

NOTE: "FAIR: INDICATES FEW OR NO CLOUDS BELOW 12,000 FEET WITH NO
SIGNIFICANT WEATHER AND/OR OBSTRUCTIONS TO VISIBILITY.

MSZ001>002-007>008-010>013-018>021-025>028-034>036-221500-
NORTHWEST MISSISSIPPI

CITY           SKY/WX    TMP DP  RH WIND       PRES   REMARKS
CLARKSDALE     CLOUDY    50  50 100 SE8       29.84S VSB 1
CLEVELAND      CLOUDY    51  51 100 S8        29.81F FOG
GREENWOOD      CLOUDY    53  51  93 S7        29.84S
GREENVILLE     CLOUDY    52  50  93 S9        29.82R FOG
GRENADA        CLOUDY    52  50  93 E7        29.84F
OLIVE BRANCH   CLOUDY    48  48 100 S8        29.84R FOG
OXFORD         CLOUDY    48  48 100 SE8       29.86S FOG
TUNICA         CLOUDY    50  48  93 SE12      29.83F FOG
$$

MSZ003>006-009-014>017-022>024-029>033-037>039-221500-
NORTHEAST MISSISSIPPI

CITY           SKY/WX    TMP DP  RH WIND       PRES   REMARKS
COLUMBUS AFB   CLOUDY    52  50  93 SE10      29.89F
CORINTH        CLOUDY    52  48  87 SE9       29.87F
GOLDN TRIANGLE CLOUDY    52  48  87 SE13      29.87F
STARKVILLE     CLOUDY    50  50 100 SE7       29.88S FOG
TUPELO         CLOUDY    52  49  89 S9        29.87F
$$

MSZ040-058-221500-
CENTRAL MISSISSIPPI

CITY           SKY/WX    TMP DP  RH WIND       PRES   REMARKS
JACKSON INTL   CLOUDY    54  53  97 SE10      29.84F FOG
JACKSON HAWKNS FOG       53  52  96 SE9       29.84S VSB 1/2
MERIDIAN KEY   CLOUDY    53  52  96 VRB3      29.87F
MERIDIAN NAS   LGT RAIN  52  51  97 SE8       29.89R
RAYMOND        CLOUDY    54  48  82 SE7       29.83F HAZE
VICKSBURG      FOG       54  52  93 SE7       29.83S VSB 1
$$

MSZ059>079-221500-
SOUTH MISSISSIPPI

CITY           SKY/WX    TMP DP  RH WIND       PRES   REMARKS
HATTIESBURG    FOG       55  55 100 E5        29.87F VSB 1/4
MCCOMB         FOG       55  55 100 SE6       29.84S VSB 1/4
NATCHEZ        CLOUDY    55  54  94 S8        29.82F
PINE BELT      CLOUDY    54  52  94 SE6       29.87F VSB<1/4
$$

MSZ080>082-221500-
COASTAL MISSISSIPPI

CITY           SKY/WX    TMP DP  RH WIND       PRES   REMARKS
BAY ST LOUIS   DRIZZLE   59  55  88 CALM      29.87S FOG
BILOXI         CLOUDY    62  62 100 SE12      29.86S FOG
PASCAGOULA     CLOUDY    59  58  96 E7        29.87S FOG
GULFPORT       LGT RAIN  61  60  97 E5        29.86R FOG
$$



USA.gov is the U.S. government's official web portal to all federal, state and local government web resources and services.